Regional Weather Roundup
Issued by NWS

Home | Current Version | Previous Version | Text Only | Print | Product List | Glossary On
Versions: 1 2 3 4 5 6 7 8 9 10 11 12 13 14 15 16 17 18 19 20 21 22 23 24 25 26 27 28 29 30 31 32 33 34 35 36 37 38 39 40 41 42 43 44 45 46 47 48 49 50
000
ASUS46 KSEW 210410
RWRWA

WASHINGTON REGIONAL WEATHER ROUNDUP
NATIONAL WEATHER SERVICE SEATTLE WA
900 PM PDT MON OCT 20 2014

NOTE:"FAIR" INDICATES FEW OR NO CLOUDS BELOW 12,000 FEET WITH NO
SIGNIFICANT WEATHER AND/OR OBSTRUCTIONS TO VISIBILITY.

WAZ505-507>509-210500-
SEATTLE, TACOMA, EVERETT, AND VICINITY

CITY           SKY/WX    TMP DP  RH WIND       PRES   REMARKS
EVERETT        MOCLDY    55  51  86 S13       29.78R
BOEING FIELD   LGT RAIN  58  51  78 S5        29.77S
RENTON         CLOUDY    56  54  93 CALM      29.77S
SEATAC AIRPORT MOCLDY    57  50  77 S7        29.78S
JBLM-MCCHORD   LGT RAIN  55  53  96 S6        29.79R
PUYALLUP       NOT AVBL
JBLM-FT LEWIS  LGT RAIN  55  54  94 S8        29.79R
TACOMA NARROWS CLOUDY    56  52  86 SW8       29.79R
$$

WAZ001-503-506-510-514-515-210500-
NORTH INTERIOR

CITY           SKY/WX    TMP DP  RH WIND       PRES   REMARKS
BELLINGHAM     CLOUDY    57  54  88 VRB5      29.73S
FRIDAY HARBOR  MOCLDY    52  51  97 CALM      29.74S
EASTSOUND      PTCLDY    55  54  94 MISG      29.71F
PORT ANGELES   MOCLDY    54  49  83 W8        29.73S
NAS WHIDBEY    CLOUDY    59  51  75 S12       29.74R
BURLINGTON     PTCLDY   N/A N/A N/A S8        29.74S
$$

WAZ020-022-039-040-504-511-512-210500-
SOUTHWEST INTERIOR

CITY           SKY/WX    TMP DP  RH WIND       PRES   REMARKS
SHELTON        LGT RAIN  54  53  97 W5        29.76R
OLYMPIA        MOCLDY    55  52  89 SW6       29.79R
CHEHALIS         N/A     55  55 100 VRB5      29.79R
KELSO          CLEAR     55  48  76 SE6       29.84R
VANCOUVER      PTCLDY    56  51  84 SE5       29.83R
SCAPPOOSE, OR  PTCLDY    51  50  96 SW5       29.82R FOG
PORTLAND, OR   PTCLDY    55  53  93 E8        29.84R
$$

WAZ021-516-517-210500-
WASHINGTON COAST

CITY           SKY/WX    TMP DP  RH WIND       PRES   REMARKS
FORKS          CLOUDY    57  56  96 CALM      29.71S
HOQUIAM        LGT RAIN  56  53  90 S7        29.76S
ASTORIA, OR    LGT RAIN  57  52  83 S10G21    29.77S
$$

WAZ019-023-024-040-518-519-210500-
CASCADE MOUNTAINS AND COLUMBIA GORGE

CITY           SKY/WX    TMP DP  RH WIND       PRES   REMARKS
STAMPEDE PASS  NOT AVBL
TROUTDALE, OR  PTCLDY    54  51  90 CALM      29.83R
THE DALLES, OR MOCLDY    51  49  92 CALM      29.84R
$$

WAZ026-027-041>044-520-521-210500-
EAST SLOPES

CITY           SKY/WX    TMP DP  RH WIND       PRES   REMARKS
OMAK           CLOUDY    53  50  89 SW9       29.75F
WENATCHEE      CLOUDY    56  51  84 E6        29.77R
ELLENSBURG     CLOUDY    53  48  83 S5        29.79R
YAKIMA         CLOUDY    53  48  83 E3        29.81R
$$

WAZ028-034-035-210500-
COLUMBIA BASIN

CITY           SKY/WX    TMP DP  RH WIND       PRES   REMARKS
EPHRATA        CLOUDY    52  51  97 SW7       29.79R
MOSES LAKE     CLOUDY    53  50  89 S10       29.80S
PASCO          LGT RAIN  54  52  93 E10       29.84S
HERMISTON, OR  CLOUDY    53  51  93 SE8       29.85F
$$

WAZ036>038-210500-
NORTHEAST WASHINGTON

CITY           SKY/WX    TMP DP  RH WIND       PRES   REMARKS
SPOKANE GEIGER CLOUDY    55  48  77 W16       29.78R
SPOKANE FELTS  CLOUDY    60  48  64 SW14      29.77R
FAIRCHILD AFB  PTCLDY    54  46  74 W16G26    29.79R
COEURDALENE,ID CLOUDY    55  46  71 W12       29.75R
DEER PARK      MOCLDY    58  48  69 SW9       29.75R
$$

WAZ029>033-210500-
SOUTHEAST WASHINGTON

CITY           SKY/WX    TMP DP  RH WIND       PRES   REMARKS
PULLMAN        CLOUDY    55  42  61 W21G31    29.83R
LEWISTON, ID   MOCLDY    61  48  62 NW15G24   29.79R HAZE
WALLA WALLA    LGT RAIN  57  47  69 S9        29.89R
PENDLETON, OR  LGT RAIN  51  49  92 SE5       29.88S
$$



USA.gov is the U.S. government's official web portal to all federal, state and local government web resources and services.